TimeCDT,TemperatureF,Dew PointF,Humidity,Sea Level PressureIn,VisibilityMPH,Wind Direction,Wind SpeedMPH,Gust SpeedMPH,PrecipitationIn,Events,Conditions,WindDirDegrees,DateUTC
12:56 AM,59.0,55.0,87,30.10,7.0,South,4.6,-,N/A,,Overcast,180,2013-03-30 05:56:00
1:56 AM,61.0,55.9,83,30.10,8.0,South,6.9,-,N/A,,Overcast,190,2013-03-30 06:56:00
2:56 AM,61.0,57.0,87,30.06,8.0,South,8.1,-,N/A,,Overcast,180,2013-03-30 07:56:00
3:56 AM,61.0,57.0,87,30.03,9.0,SSE,8.1,-,N/A,,Overcast,150,2013-03-30 08:56:00
4:56 AM,60.1,57.9,93,30.05,9.0,South,4.6,-,0.00,Rain,Light Rain,170,2013-03-30 09:56:00
5:56 AM,60.1,57.9,93,30.08,8.0,Calm,Calm,-,0.02,Rain,Light Rain,0,2013-03-30 10:56:00
6:03 AM,60.8,57.2,88,30.09,7.0,WSW,3.5,-,0.00,Rain,Light Rain,250,2013-03-30 11:03:00
6:34 AM,60.8,57.2,88,30.09,4.0,South,3.5,-,0.03,Rain,Rain,180,2013-03-30 11:34:00
6:41 AM,60.8,59.0,94,30.09,3.0,South,4.6,-,0.04,Rain,Rain,170,2013-03-30 11:41:00
6:56 AM,60.1,59.0,96,30.09,2.0,South,4.6,-,0.07,Rain,Rain,180,2013-03-30 11:56:00
7:04 AM,60.8,59.0,94,30.09,1.2,SW,6.9,-,0.17,Rain,Heavy Rain,220,2013-03-30 12:04:00
7:12 AM,60.8,59.0,94,30.09,2.0,SSW,4.6,-,0.24,Rain,Heavy Rain,210,2013-03-30 12:12:00
7:22 AM,60.8,59.0,94,30.07,2.5,SSE,6.9,-,0.29,Rain,Rain,150,2013-03-30 12:22:00
7:26 AM,60.8,59.0,94,30.07,3.0,SSE,11.5,-,0.31,Rain,Rain,150,2013-03-30 12:26:00
7:36 AM,60.8,59.0,94,30.05,5.0,SE,9.2,-,0.33,Rain,Rain,140,2013-03-30 12:36:00
7:56 AM,60.1,59.0,96,30.05,5.0,SE,9.2,-,0.37,Rain,Rain,140,2013-03-30 12:56:00
8:12 AM,60.8,59.0,94,30.06,4.0,SE,8.1,-,0.03,Rain,Light Rain,140,2013-03-30 13:12:00
8:19 AM,60.8,59.0,94,30.06,5.0,SSE,8.1,-,0.03,Rain,Light Rain,160,2013-03-30 13:19:00
8:27 AM,60.8,59.0,94,30.06,7.0,South,10.4,-,0.03,,Overcast,180,2013-03-30 13:27:00
8:49 AM,60.8,59.0,94,30.07,9.0,SSW,8.1,-,0.03,,Overcast,210,2013-03-30 13:49:00
8:56 AM,61.0,59.0,93,30.06,10.0,SSW,9.2,-,0.03,,Overcast,200,2013-03-30 13:56:00
9:13 AM,60.8,59.0,94,30.07,10.0,SSW,12.7,-,N/A,,Mostly Cloudy,200,2013-03-30 14:13:00
9:46 AM,62.6,59.0,88,30.07,10.0,SSW,9.2,-,N/A,,Overcast,200,2013-03-30 14:46:00
9:56 AM,62.1,59.0,90,30.08,10.0,WSW,8.1,-,N/A,,Overcast,240,2013-03-30 14:56:00
10:03 AM,62.6,59.0,88,30.09,10.0,West,6.9,-,N/A,,Overcast,270,2013-03-30 15:03:00
10:27 AM,62.6,59.0,88,30.08,10.0,SW,8.1,-,0.00,,Overcast,230,2013-03-30 15:27:00
10:38 AM,62.6,59.0,88,30.07,10.0,SSW,6.9,-,0.00,Rain,Light Rain,210,2013-03-30 15:38:00
10:56 AM,63.0,59.0,87,30.06,10.0,WSW,8.1,-,0.00,,Mostly Cloudy,240,2013-03-30 15:56:00
11:23 AM,64.4,60.8,88,30.05,10.0,SW,11.5,19.6,N/A,,Overcast,230,2013-03-30 16:23:00
11:41 AM,66.2,60.8,83,30.05,10.0,WSW,19.6,25.3,N/A,,Overcast,240,2013-03-30 16:41:00
11:56 AM,68.0,61.0,78,30.05,10.0,WSW,15.0,28.8,N/A,,Overcast,240,2013-03-30 16:56:00
12:56 PM,71.1,60.1,68,30.03,10.0,WSW,17.3,25.3,N/A,,Mostly Cloudy,240,2013-03-30 17:56:00
1:16 PM,73.4,60.8,65,30.02,10.0,SW,11.5,23.0,N/A,,Mostly Cloudy,230,2013-03-30 18:16:00
1:26 PM,73.4,60.8,65,30.03,10.0,WSW,16.1,20.7,N/A,,Mostly Cloudy,250,2013-03-30 18:26:00
1:56 PM,72.0,59.0,64,30.00,10.0,SSW,5.8,-,N/A,,Overcast,210,2013-03-30 18:56:00
2:05 PM,71.6,59.0,64,29.99,10.0,South,9.2,-,N/A,Thunderstorm,Thunderstorm,190,2013-03-30 19:05:00
2:30 PM,69.8,60.8,73,30.01,2.0,North,13.8,19.6,0.00,Rain-Thunderstorm,Light Thunderstorms and Rain,350,2013-03-30 19:30:00
2:32 PM,68.0,60.8,78,30.04,0.5,NNW,31.1,50.6,0.02,Rain-Thunderstorm,Heavy Thunderstorms and Rain,340,2013-03-30 19:32:00
2:34 PM,64.4,60.8,88,30.10,0.1,NW,49.5,63.3,0.07,Fog-Rain-Thunderstorm,Heavy Thunderstorms with Small Hail,310,2013-03-30 19:34:00
2:36 PM,60.8,57.2,88,30.08,0.1,NW,34.5,63.3,0.13,Fog-Rain-Hail-Thunderstorm,Heavy Thunderstorms with Hail,310,2013-03-30 19:36:00
2:45 PM,59.0,57.2,94,30.02,2.0,South,16.1,38.0,1.08,Rain-Thunderstorm,Heavy Thunderstorms and Rain,190,2013-03-30 19:45:00
2:50 PM,60.8,57.2,88,30.02,5.0,South,16.1,-,1.08,Rain-Thunderstorm,Light Thunderstorms and Rain,170,2013-03-30 19:50:00
2:56 PM,61.0,59.0,93,30.00,7.0,South,13.8,19.6,1.08,Rain-Thunderstorm,Light Thunderstorms and Rain,170,2013-03-30 19:56:00
3:03 PM,60.8,59.0,94,30.01,10.0,SSE,10.4,20.7,0.00,Thunderstorm,Thunderstorm,160,2013-03-30 20:03:00
3:11 PM,64.4,60.8,88,30.01,10.0,SSE,11.5,-,0.00,,Mostly Cloudy,160,2013-03-30 20:11:00
3:56 PM,70.0,62.1,76,29.98,10.0,SSE,4.6,-,0.00,,Mostly Cloudy,150,2013-03-30 20:56:00
4:56 PM,69.1,64.0,84,29.94,10.0,South,5.8,-,0.01,Rain,Light Rain,190,2013-03-30 21:56:00
5:56 PM,72.0,62.1,71,29.94,10.0,Calm,Calm,-,0.00,,Mostly Cloudy,0,2013-03-30 22:56:00
6:56 PM,72.0,62.1,71,29.93,10.0,Calm,Calm,-,N/A,,Partly Cloudy,0,2013-03-30 23:56:00
7:56 PM,66.0,62.1,87,29.93,8.0,Calm,Calm,-,N/A,,Partly Cloudy,0,2013-03-31 00:56:00
8:56 PM,63.0,62.1,97,29.94,7.0,Calm,Calm,-,N/A,,Clear,0,2013-03-31 01:56:00
9:56 PM,60.1,59.0,96,29.95,7.0,South,3.5,-,N/A,,Clear,170,2013-03-31 02:56:00
10:56 PM,62.1,57.9,86,29.95,7.0,South,5.8,-,N/A,,Scattered Clouds,180,2013-03-31 03:56:00
11:56 PM,64.9,60.1,84,29.95,10.0,SSW,8.1,-,N/A,,Scattered Clouds,210,2013-03-31 04:56:00